| time (UTC) | temp C | wind direction | speed KPH | gust KPH | rain 1hr cm | rain 24hr cm | rain mn cm | humidity % | barometer mb |
| 20260507093500 | 12 | 63 | 8.0 | 0.0 | 0.00 | 0.00 | 0.00 | 64 | 1016.1 |
| 20260507090500 | 11 | 70 | 6.4 | 0.0 | 0.00 | 0.00 | 0.00 | 67 | 1016.0 |
| 20260507083500 | 10 | 64 | 8.0 | 0.0 | 0.00 | 0.00 | 0.00 | 74 | 1016.0 |
| 20260507080500 | 9 | 71 | 1.6 | 0.0 | 0.00 | 0.00 | 0.00 | 78 | 1015.8 |
| 20260507073500 | 10 | 107 | 11.3 | 0.0 | 0.00 | 0.00 | 0.00 | 76 | 1015.5 |
| 20260507070500 | 8 | 78 | 9.7 | 0.0 | 0.00 | 0.00 | 0.00 | 80 | 1015.2 |
| 20260507063500 | 8 | 79 | 4.8 | 0.0 | 0.00 | 0.00 | 0.00 | 84 | 1015.0 |
| 20260507060500 | 7 | 44 | 4.8 | 0.0 | 0.00 | 0.00 | 0.00 | 87 | 1014.8 |
| 20260507053500 | 7 | 50 | 6.4 | 0.0 | 0.00 | 0.00 | 0.00 | 88 | 1014.4 |
| 20260507050500 | 7 | 48 | 3.2 | 0.0 | 0.00 | 0.00 | 0.00 | 88 | 1014.1 |
| 20260507043500 | 7 | 77 | 3.2 | 0.0 | 0.00 | 0.00 | 0.00 | 87 | 1014.0 |
| 20260507040500 | 7 | 65 | 1.6 | 0.0 | 0.00 | 0.00 | 0.00 | 87 | 1013.6 |
| 20260507033500 | 7 | 87 | 6.4 | 0.0 | 0.00 | 0.00 | 0.00 | 86 | 1013.5 |
| 20260507030500 | 8 | 116 | 9.7 | 0.0 | 0.00 | 0.00 | 0.00 | 87 | 1013.3 |
| 20260507023500 | 8 | 81 | 4.8 | 0.0 | 0.00 | 0.00 | 0.00 | 88 | 1013.0 |
| 20260507020500 | 8 | 57 | 3.2 | 0.0 | 0.00 | 0.00 | 0.00 | 88 | 1012.8 |
| 20260507013500 | 8 | 77 | 3.2 | 0.0 | 0.00 | 0.00 | 0.00 | 88 | 1012.5 |
| 20260507010500 | 8 | 43 | 6.4 | 0.0 | 0.00 | 0.00 | 0.00 | 89 | 1012.2 |
| 20260507003500 | 8 | 52 | 4.8 | 0.0 | 0.00 | 0.00 | 0.00 | 88 | 1012.2 |
| 20260507000500 | 8 | 69 | 3.2 | 0.0 | 0.00 | 0.00 | 0.00 | 88 | 1012.1 |
| 20260506233500 | 8 | 77 | 8.0 | 0.0 | 0.00 | 0.00 | 0.00 | 87 | 1012.2 |
| 20260506230500 | 8 | 66 | 3.2 | 0.0 | 0.00 | 0.00 | 0.00 | 86 | 1012.0 |
| 20260506223500 | 9 | 46 | 4.8 | 0.0 | 0.00 | 0.00 | 0.00 | 84 | 1012.0 |
| 20260506220500 | 9 | 55 | 6.4 | 0.0 | 0.00 | 0.00 | 0.00 | 83 | 1011.6 |
| 20260506213500 | 9 | 75 | 4.8 | 0.0 | 0.00 | 0.00 | 0.00 | 80 | 1011.6 |
| 20260506210500 | 10 | 69 | 4.8 | 0.0 | 0.00 | 0.00 | 0.00 | 74 | 1011.4 |
| 20260506203500 | 10 | 44 | 6.4 | 0.0 | 0.00 | 0.00 | 0.00 | 73 | 1011.4 |
| 20260506200500 | 10 | 65 | 1.6 | 0.0 | 0.00 | 0.00 | 0.00 | 74 | 1011.1 |
| 20260506193500 | 10 | 44 | 0.0 | 0.0 | 0.00 | 0.00 | 0.00 | 81 | 1010.8 |
| 20260506190500 | 10 | 95 | 0.0 | 0.0 | 0.00 | 0.00 | 0.00 | 84 | 1010.5 |
| 20260506183500 | 10 | 81 | 1.6 | 0.0 | 0.00 | 0.00 | 0.00 | 81 | 1010.2 |
| 20260506180500 | 10 | 89 | 3.2 | 0.0 | 0.00 | 0.00 | 0.00 | 78 | 1009.9 |
| 20260506173500 | 10 | 96 | 6.4 | 0.0 | 0.00 | 0.00 | 0.00 | 77 | 1009.7 |
| 20260506170500 | 10 | 117 | 4.8 | 0.0 | 0.00 | 0.00 | 0.00 | 77 | 1009.8 |
| 20260506163500 | 10 | 110 | 1.6 | 0.0 | 0.00 | 0.00 | 0.00 | 79 | 1009.8 |
| 20260506160500 | 11 | 72 | 0.0 | 0.0 | 0.00 | 0.00 | 0.00 | 83 | 1010.0 |
| 20260506153500 | 10 | 66 | 1.6 | 0.0 | 0.00 | 0.00 | 0.00 | 80 | 1010.0 |
| 20260506150500 | 10 | 77 | 3.2 | 0.0 | 0.00 | 0.00 | 0.00 | 77 | 1009.9 |
| 20260506143500 | 10 | 56 | 4.8 | 0.0 | 0.00 | 0.00 | 0.00 | 72 | 1010.1 |
| 20260506140500 | 11 | 114 | 9.7 | 0.0 | 0.00 | 0.00 | 0.00 | 67 | 1010.0 |
| 20260506133500 | 11 | 120 | 11.3 | 0.0 | 0.00 | 0.00 | 0.00 | 60 | 1009.9 |
| 20260506130500 | 12 | 95 | 6.4 | 0.0 | 0.00 | 0.00 | 0.00 | 56 | 1009.7 |
| 20260506123500 | 12 | 96 | 11.3 | 0.0 | 0.00 | 0.00 | 0.00 | 50 | 1009.4 |
| 20260506120500 | 13 | 99 | 8.0 | 0.0 | 0.00 | 0.00 | 0.00 | 48 | 1009.2 |
| 20260506113500 | 12 | 60 | 9.7 | 0.0 | 0.00 | 0.00 | 0.00 | 48 | 1009.2 |
| 20260506110500 | 12 | 87 | 6.4 | 0.0 | 0.00 | 0.00 | 0.00 | 54 | 1009.4 |
| 20260506103500 | 11 | 46 | 4.8 | 0.0 | 0.00 | 0.00 | 0.00 | 58 | 1009.3 |
| 20260506100500 | 11 | 65 | 3.2 | 0.0 | 0.00 | 0.00 | 0.00 | 59 | 1009.5 |